Hourly Data Report for January 17, 2006

TORONTO CITY
ONTARIO

43°40'00.000" N
79°24'00.000" W
112.50 m
6158355
71508
XTO

Download Data

Hourly Data (January 2006)
Hourly Data Report for January 17, 2006
TIME
LST
Temp Definition
°C
Dew Point Definition
°C
Rel Hum Definition
%
Precip. Amount Definition
mm

Wind Dir Definition
10's deg

Wind Spd Definition
km/h
Visibility Definition
km
Stn Press Definition
kPa
Hmdx Definition


Wind Chill Definition


Weather Definition


00:00 -3.4 -6.7 78   LegendMM LegendMM   100.10     LegendNANA
01:00 -3.8 -6.9 79   LegendMM LegendMM   100.09     LegendNANA
02:00 -2.2 -5.9 76   LegendMM LegendMM   100.06     LegendNANA
03:00 -1.9 -5.6 76   LegendMM LegendMM   100.00     LegendNANA
04:00 -1.6 -6.4 70   LegendMM LegendMM   99.99     LegendNANA
05:00 -1.5 -7.2 65   LegendMM LegendMM   99.99     LegendNANA
06:00 -1.3 -7.0 65   LegendMM LegendMM   99.93     LegendNANA
07:00 -1.0 -6.7 65   LegendMM LegendMM   99.98     LegendNANA
08:00 -0.7 -6.5 65   LegendMM LegendMM   99.96     LegendNANA
09:00 -0.1 -6.4 62   LegendMM LegendMM   99.85     LegendNANA
10:00 0.5 -4.8 68   LegendMM LegendMM   99.82     LegendNANA
11:00 0.8 -4.1 70   LegendMM LegendMM   99.70     LegendNANA
12:00 0.8 -4.0 70   LegendMM LegendMM   99.52     LegendNANA
13:00 1.1 -2.9 75   LegendMM LegendMM   99.35     LegendNANA
14:00 0.8 -1.6 84   LegendMM LegendMM   99.20     LegendNANA
15:00 1.0 -0.6 89   LegendMM LegendMM   99.07     LegendNANA
16:00 1.6 0.4 92   LegendMM LegendMM   98.99     LegendNANA
17:00 1.9 1.0 94   LegendMM LegendMM   98.92     LegendNANA
18:00 2.7 2.1 96   LegendMM LegendMM   98.82     LegendNANA
19:00 3.0 2.5 97   LegendMM LegendMM   98.76     LegendNANA
20:00 3.2 2.8 97   LegendMM LegendMM   98.73     LegendNANA
21:00 3.7 3.4 98   LegendMM LegendMM   98.66     LegendNANA
22:00 3.9 3.7 99   LegendMM LegendMM   98.59     LegendNANA
23:00 4.5 4.4 99   LegendMM LegendMM   98.38     LegendNANA

Notes on Data Quality.

Legend

  • E = Estimated
  • M = Missing
  • NA = Not Available*
  • [empty] = Indicates an unobserved value
Date modified: